Time,TemperatureF,DewpointF,PressureIn,WindDirection,WindDirectionDegrees,WindSpeedMPH,WindSpeedGustMPH,Humidity,HourlyPrecipIn,Conditions,Clouds,dailyrainin,SoftwareType,DateUTC
2013-01-24 00:03:00,58.1,43.0,30.22,North,353,0.0,0.0,57,0.00,,,0.00,WUHU216WMR968SP,2013-01-24 08:03:00,
2013-01-24 00:08:00,57.9,42.4,30.22,North,353,0.0,0.0,56,0.00,,,0.00,WUHU216WMR968SP,2013-01-24 08:08:00,
2013-01-24 00:13:00,58.1,42.6,30.22,North,353,0.0,0.0,56,0.00,,,0.00,WUHU216WMR968SP,2013-01-24 08:13:00,
2013-01-24 00:18:00,58.3,42.8,30.22,North,353,0.0,0.0,56,0.00,,,0.00,WUHU216WMR968SP,2013-01-24 08:18:00,
2013-01-24 00:23:00,58.1,42.6,30.22,North,353,0.0,0.0,56,0.00,,,0.00,WUHU216WMR968SP,2013-01-24 08:23:00,
2013-01-24 00:28:00,58.1,42.6,30.22,North,353,0.0,0.0,56,0.00,,,0.00,WUHU216WMR968SP,2013-01-24 08:28:00,
2013-01-24 00:33:00,57.9,42.4,30.22,NNW,348,2.2,3.6,56,0.00,,,0.00,WUHU216WMR968SP,2013-01-24 08:33:00,
2013-01-24 00:38:00,57.9,41.9,30.22,North,0,3.1,4.0,55,0.00,,,0.00,WUHU216WMR968SP,2013-01-24 08:38:00,
2013-01-24 00:43:00,57.9,41.9,30.22,North,0,2.2,4.0,55,0.00,,,0.00,WUHU216WMR968SP,2013-01-24 08:43:00,
2013-01-24 00:48:00,58.1,42.1,30.22,NNW,344,2.7,3.6,55,0.00,,,0.00,WUHU216WMR968SP,2013-01-24 08:48:00,
2013-01-24 00:53:00,58.3,42.3,30.22,North,353,2.2,3.6,55,0.00,,,0.00,WUHU216WMR968SP,2013-01-24 08:53:00,
2013-01-24 00:58:00,58.3,42.3,30.22,North,357,3.1,3.6,55,0.00,,,0.00,WUHU216WMR968SP,2013-01-24 08:58:00,
2013-01-24 01:03:00,58.3,42.3,30.22,North,357,3.6,4.9,55,0.00,,,0.00,WUHU216WMR968SP,2013-01-24 09:03:00,
2013-01-24 01:08:00,57.9,42.4,30.22,NNW,348,3.6,5.4,56,0.00,,,0.00,WUHU216WMR968SP,2013-01-24 09:08:00,
2013-01-24 01:13:00,57.6,42.6,30.22,North,11,4.9,6.3,57,0.00,,,0.00,WUHU216WMR968SP,2013-01-24 09:13:00,
2013-01-24 01:18:00,57.4,42.8,30.22,North,353,4.0,6.3,58,0.00,,,0.00,WUHU216WMR968SP,2013-01-24 09:18:00,
2013-01-24 01:23:00,57.0,42.9,30.22,NNE,17,4.5,6.3,59,0.00,,,0.00,WUHU216WMR968SP,2013-01-24 09:23:00,
2013-01-24 01:28:00,56.8,42.7,30.22,NNE,13,4.5,6.3,59,0.00,,,0.00,WUHU216WMR968SP,2013-01-24 09:28:00,
2013-01-24 01:33:00,56.8,42.3,30.22,North,357,3.6,6.3,58,0.00,,,0.00,WUHU216WMR968SP,2013-01-24 09:33:00,
2013-01-24 01:38:00,56.8,41.8,30.22,North,357,3.1,5.4,57,0.00,,,0.00,WUHU216WMR968SP,2013-01-24 09:38:00,
2013-01-24 01:43:00,56.8,41.3,30.22,North,0,3.1,6.3,56,0.00,,,0.00,WUHU216WMR968SP,2013-01-24 09:43:00,
2013-01-24 01:48:00,56.8,41.8,30.22,NNW,339,3.6,6.3,57,0.00,,,0.00,WUHU216WMR968SP,2013-01-24 09:48:00,
2013-01-24 01:53:00,56.8,41.8,30.22,NNE,19,5.8,7.6,57,0.00,,,0.00,WUHU216WMR968SP,2013-01-24 09:53:00,
2013-01-24 01:58:00,56.8,41.8,30.22,ENE,68,2.2,7.6,57,0.00,,,0.00,WUHU216WMR968SP,2013-01-24 09:58:00,
2013-01-24 02:03:00,56.7,42.2,30.22,NE,52,0.0,6.3,58,0.00,,,0.00,WUHU216WMR968SP,2013-01-24 10:03:00,
2013-01-24 02:08:00,56.5,42.0,30.22,NE,52,0.0,2.7,58,0.00,,,0.00,WUHU216WMR968SP,2013-01-24 10:08:00,
2013-01-24 02:13:00,56.3,42.3,30.22,NE,52,0.0,2.7,59,0.03,,,0.03,WUHU216WMR968SP,2013-01-24 10:13:00,
2013-01-24 02:18:00,55.9,42.3,30.22,NE,36,0.0,2.7,60,0.03,,,0.03,WUHU216WMR968SP,2013-01-24 10:18:00,
2013-01-24 02:23:00,55.4,42.7,30.22,North,6,0.0,4.9,62,0.03,,,0.03,WUHU216WMR968SP,2013-01-24 10:23:00,
2013-01-24 02:28:00,55.2,43.8,30.22,NNE,15,2.7,4.9,65,0.03,,,0.03,WUHU216WMR968SP,2013-01-24 10:28:00,
2013-01-24 02:33:00,54.9,43.9,30.22,NNE,14,3.1,5.8,66,0.07,,,0.07,WUHU216WMR968SP,2013-01-24 10:33:00,
2013-01-24 02:38:00,54.9,44.3,30.22,North,0,3.6,6.3,67,0.07,,,0.07,WUHU216WMR968SP,2013-01-24 10:38:00,
2013-01-24 02:43:00,54.9,44.3,30.22,NNE,18,3.1,6.3,67,0.07,,,0.07,WUHU216WMR968SP,2013-01-24 10:43:00,
2013-01-24 02:48:00,55.0,44.8,30.22,NNE,14,3.6,5.4,68,0.11,,,0.11,WUHU216WMR968SP,2013-01-24 10:48:00,
2013-01-24 02:53:00,54.9,44.7,30.22,North,1,2.7,5.8,68,0.11,,,0.11,WUHU216WMR968SP,2013-01-24 10:53:00,
2013-01-24 02:58:00,54.7,44.8,30.22,North,11,4.9,6.3,69,0.11,,,0.11,WUHU216WMR968SP,2013-01-24 10:58:00,
2013-01-24 03:03:00,54.5,44.7,30.22,NNE,14,4.0,9.6,69,0.11,,,0.11,WUHU216WMR968SP,2013-01-24 11:03:00,
2013-01-24 03:08:00,54.5,44.7,30.22,NNE,18,2.7,9.6,69,0.11,,,0.11,WUHU216WMR968SP,2013-01-24 11:08:00,
2013-01-24 03:13:00,54.7,44.8,30.22,NNW,335,3.1,8.1,69,0.08,,,0.11,WUHU216WMR968SP,2013-01-24 11:13:00,
2013-01-24 03:18:00,54.9,45.0,30.22,NNE,13,3.1,8.1,69,0.08,,,0.11,WUHU216WMR968SP,2013-01-24 11:18:00,
2013-01-24 03:23:00,55.0,45.5,30.19,NNE,20,4.0,8.1,70,0.12,,,0.15,WUHU216WMR968SP,2013-01-24 11:23:00,
2013-01-24 03:28:00,54.9,45.8,30.19,NNE,12,3.1,8.1,71,0.12,,,0.15,WUHU216WMR968SP,2013-01-24 11:28:00,
2013-01-24 03:33:00,54.7,46.0,30.19,NNE,22,4.5,8.1,72,0.08,,,0.15,WUHU216WMR968SP,2013-01-24 11:33:00,
2013-01-24 03:38:00,54.5,45.8,30.19,NNE,16,3.6,5.8,72,0.12,,,0.19,WUHU216WMR968SP,2013-01-24 11:38:00,
2013-01-24 03:43:00,54.5,46.1,30.19,North,8,3.6,5.8,73,0.12,,,0.19,WUHU216WMR968SP,2013-01-24 11:43:00,
2013-01-24 03:48:00,54.5,46.1,30.19,NNE,18,4.5,6.3,73,0.08,,,0.19,WUHU216WMR968SP,2013-01-24 11:48:00,
2013-01-24 03:53:00,54.5,46.5,30.19,NNE,31,4.5,7.6,74,0.08,,,0.19,WUHU216WMR968SP,2013-01-24 11:53:00,
2013-01-24 03:58:00,54.7,46.7,30.19,North,8,4.0,7.6,74,0.12,,,0.23,WUHU216WMR968SP,2013-01-24 11:58:00,
2013-01-24 04:03:00,54.9,47.2,30.19,NNE,15,4.5,6.3,75,0.12,,,0.23,WUHU216WMR968SP,2013-01-24 12:03:00,
2013-01-24 04:08:00,54.7,46.7,30.19,NNE,12,5.8,7.6,74,0.12,,,0.23,WUHU216WMR968SP,2013-01-24 12:08:00,
2013-01-24 04:13:00,54.7,46.7,30.19,NNE,22,4.9,8.1,74,0.12,,,0.23,WUHU216WMR968SP,2013-01-24 12:13:00,
2013-01-24 04:18:00,54.5,46.5,30.19,NNE,20,4.5,8.7,74,0.16,,,0.27,WUHU216WMR968SP,2013-01-24 12:18:00,
2013-01-24 04:23:00,54.5,46.5,30.19,North,357,4.0,8.7,74,0.12,,,0.27,WUHU216WMR968SP,2013-01-24 12:23:00,
2013-01-24 04:28:00,54.5,46.8,30.19,NNE,28,4.9,6.3,75,0.12,,,0.27,WUHU216WMR968SP,2013-01-24 12:28:00,
2013-01-24 04:33:00,54.5,47.2,30.19,NNE,19,4.5,6.3,76,0.12,,,0.27,WUHU216WMR968SP,2013-01-24 12:33:00,
2013-01-24 04:38:00,54.5,47.2,30.19,NNE,25,3.6,5.4,76,0.08,,,0.27,WUHU216WMR968SP,2013-01-24 12:38:00,
2013-01-24 04:43:00,54.7,47.4,30.19,North,10,4.5,6.7,76,0.08,,,0.27,WUHU216WMR968SP,2013-01-24 12:43:00,
2013-01-24 04:48:00,54.7,47.4,30.19,NNE,27,4.9,7.6,76,0.16,,,0.35,WUHU216WMR968SP,2013-01-24 12:48:00,
2013-01-24 04:53:00,54.7,47.4,30.19,NNE,23,4.0,7.6,76,0.16,,,0.35,WUHU216WMR968SP,2013-01-24 12:53:00,
2013-01-24 04:59:00,54.7,47.0,30.19,East,101,2.7,5.4,75,0.12,,,0.35,WUHU216WMR968SP,2013-01-24 12:59:00,
2013-01-24 05:04:00,54.7,47.0,30.19,North,8,3.6,5.4,75,0.12,,,0.35,WUHU216WMR968SP,2013-01-24 13:04:00,
2013-01-24 05:09:00,54.7,47.0,30.19,NNE,16,3.6,5.8,75,0.12,,,0.35,WUHU216WMR968SP,2013-01-24 13:09:00,
2013-01-24 05:14:00,54.7,47.0,30.19,NNE,23,3.6,6.3,75,0.12,,,0.35,WUHU216WMR968SP,2013-01-24 13:14:00,
2013-01-24 05:19:00,54.5,46.8,30.19,NE,36,2.2,6.3,75,0.08,,,0.35,WUHU216WMR968SP,2013-01-24 13:19:00,
2013-01-24 05:24:00,54.5,46.8,30.22,ENE,72,3.1,4.9,75,0.12,,,0.39,WUHU216WMR968SP,2013-01-24 13:24:00,
2013-01-24 05:29:00,54.3,46.6,30.22,North,7,2.7,5.4,75,0.12,,,0.39,WUHU216WMR968SP,2013-01-24 13:29:00,
2013-01-24 05:34:00,54.5,47.2,30.22,NNE,12,2.7,5.4,76,0.12,,,0.39,WUHU216WMR968SP,2013-01-24 13:34:00,
2013-01-24 05:39:00,54.5,47.2,30.22,NNE,25,2.2,5.4,76,0.12,,,0.39,WUHU216WMR968SP,2013-01-24 13:39:00,
2013-01-24 05:44:00,54.7,47.4,30.22,NNE,12,2.2,5.4,76,0.12,,,0.39,WUHU216WMR968SP,2013-01-24 13:44:00,
2013-01-24 05:49:00,54.7,47.7,30.22,North,4,3.1,7.6,77,0.08,,,0.43,WUHU216WMR968SP,2013-01-24 13:49:00,
2013-01-24 05:54:00,54.7,47.7,30.22,East,79,3.1,7.6,77,0.08,,,0.43,WUHU216WMR968SP,2013-01-24 13:54:00,
2013-01-24 05:59:00,54.9,47.9,30.22,ENE,59,3.6,5.4,77,0.08,,,0.43,WUHU216WMR968SP,2013-01-24 13:59:00,
2013-01-24 06:04:00,54.9,47.9,30.22,North,4,3.6,5.4,77,0.08,,,0.43,WUHU216WMR968SP,2013-01-24 14:04:00,
2013-01-24 06:09:00,55.0,48.0,30.22,NNE,33,3.1,5.8,77,0.08,,,0.43,WUHU216WMR968SP,2013-01-24 14:09:00,
2013-01-24 06:14:00,55.0,48.0,30.22,NNE,21,3.1,5.8,77,0.08,,,0.43,WUHU216WMR968SP,2013-01-24 14:14:00,
2013-01-24 06:19:00,55.0,48.0,30.22,NNE,15,0.0,4.9,77,0.08,,,0.43,WUHU216WMR968SP,2013-01-24 14:19:00,
2013-01-24 06:24:00,55.2,48.2,30.22,NNE,20,0.0,3.1,77,0.08,,,0.47,WUHU216WMR968SP,2013-01-24 14:24:00,
2013-01-24 06:29:00,55.2,48.2,30.22,NNE,31,0.0,0.0,77,0.08,,,0.47,WUHU216WMR968SP,2013-01-24 14:29:00,
2013-01-24 06:34:00,55.2,48.5,30.22,NE,55,0.0,0.0,78,0.08,,,0.47,WUHU216WMR968SP,2013-01-24 14:34:00,
2013-01-24 06:39:00,55.2,48.5,30.22,North,4,0.0,0.0,78,0.08,,,0.47,WUHU216WMR968SP,2013-01-24 14:39:00,
2013-01-24 06:44:00,55.0,48.0,30.22,NNE,20,0.0,0.0,77,0.08,,,0.47,WUHU216WMR968SP,2013-01-24 14:44:00,
2013-01-24 06:49:00,55.0,48.0,30.22,NNE,20,0.0,0.0,77,0.04,,,0.47,WUHU216WMR968SP,2013-01-24 14:49:00,
2013-01-24 06:54:00,55.0,48.0,30.22,North,11,0.0,0.0,77,0.04,,,0.47,WUHU216WMR968SP,2013-01-24 14:54:00,
2013-01-24 06:59:00,55.0,48.0,30.22,North,11,0.0,0.0,77,0.04,,,0.47,WUHU216WMR968SP,2013-01-24 14:59:00,
2013-01-24 07:04:00,55.0,48.0,30.22,North,9,0.0,0.0,77,0.04,,,0.47,WUHU216WMR968SP,2013-01-24 15:04:00,
2013-01-24 07:09:00,55.2,48.2,30.22,NNE,13,0.0,0.0,77,0.04,,,0.47,WUHU216WMR968SP,2013-01-24 15:09:00,
2013-01-24 07:14:00,55.2,47.8,30.22,North,4,0.0,0.0,76,0.04,,,0.47,WUHU216WMR968SP,2013-01-24 15:14:00,
2013-01-24 07:19:00,55.0,47.7,30.22,NNE,18,0.0,0.0,76,0.04,,,0.47,WUHU216WMR968SP,2013-01-24 15:19:00,
2013-01-24 07:24:00,55.0,47.7,30.22,NNE,24,0.0,0.0,76,0.04,,,0.51,WUHU216WMR968SP,2013-01-24 15:24:00,
2013-01-24 07:29:00,55.0,47.7,30.22,NNE,14,0.0,0.0,76,0.04,,,0.51,WUHU216WMR968SP,2013-01-24 15:29:00,
2013-01-24 07:34:00,54.9,47.6,30.22,NNE,21,0.0,0.0,76,0.04,,,0.51,WUHU216WMR968SP,2013-01-24 15:34:00,
2013-01-24 07:39:00,54.9,47.6,30.22,East,96,0.0,0.0,76,0.04,,,0.51,WUHU216WMR968SP,2013-01-24 15:39:00,
2013-01-24 07:44:00,54.9,47.6,30.22,East,101,0.0,0.0,76,0.04,,,0.51,WUHU216WMR968SP,2013-01-24 15:44:00,
2013-01-24 07:49:00,54.9,47.6,30.22,NNE,24,0.0,0.0,76,0.04,,,0.51,WUHU216WMR968SP,2013-01-24 15:49:00,
2013-01-24 07:54:00,54.9,47.6,30.22,NNE,14,0.0,0.0,76,0.04,,,0.51,WUHU216WMR968SP,2013-01-24 15:54:00,
2013-01-24 07:59:00,54.7,47.7,30.22,ENE,72,0.0,0.0,77,0.08,,,0.55,WUHU216WMR968SP,2013-01-24 15:59:00,
2013-01-24 08:04:00,54.7,47.7,30.22,NE,49,0.0,0.0,77,0.08,,,0.55,WUHU216WMR968SP,2013-01-24 16:04:00,
2013-01-24 08:09:00,54.7,47.7,30.25,NNE,12,0.0,0.0,77,0.08,,,0.55,WUHU216WMR968SP,2013-01-24 16:09:00,
2013-01-24 08:14:00,54.7,47.7,30.25,North,357,0.0,0.0,77,0.08,,,0.55,WUHU216WMR968SP,2013-01-24 16:14:00,
2013-01-24 08:19:00,54.7,47.7,30.25,NNE,15,0.0,0.0,77,0.12,,,0.59,WUHU216WMR968SP,2013-01-24 16:19:00,
2013-01-24 08:24:00,54.7,47.7,30.22,North,3,0.0,0.0,77,0.08,,,0.59,WUHU216WMR968SP,2013-01-24 16:24:00,
2013-01-24 08:29:00,54.7,47.7,30.22,NNE,13,0.0,0.0,77,0.11,,,0.62,WUHU216WMR968SP,2013-01-24 16:29:00,
2013-01-24 08:34:00,54.7,47.7,30.22,North,11,0.0,0.0,77,0.11,,,0.62,WUHU216WMR968SP,2013-01-24 16:34:00,
2013-01-24 08:39:00,54.7,48.0,30.25,NNE,24,0.0,0.0,78,0.15,,,0.66,WUHU216WMR968SP,2013-01-24 16:39:00,
2013-01-24 08:44:00,54.7,48.0,30.25,North,2,0.0,0.0,78,0.15,,,0.66,WUHU216WMR968SP,2013-01-24 16:44:00,
2013-01-24 08:49:00,54.7,48.4,30.25,NE,46,0.0,0.0,79,0.15,,,0.66,WUHU216WMR968SP,2013-01-24 16:49:00,
2013-01-24 08:54:00,54.7,48.4,30.25,North,357,0.0,0.0,79,0.15,,,0.66,WUHU216WMR968SP,2013-01-24 16:54:00,
2013-01-24 08:59:00,54.9,48.6,30.25,North,4,0.0,0.0,79,0.11,,,0.66,WUHU216WMR968SP,2013-01-24 16:59:00,
2013-01-24 09:04:00,54.9,48.6,30.25,North,9,0.0,0.0,79,0.11,,,0.66,WUHU216WMR968SP,2013-01-24 17:04:00,
2013-01-24 09:09:00,54.9,48.6,30.28,North,8,0.0,0.0,79,0.11,,,0.66,WUHU216WMR968SP,2013-01-24 17:09:00,
2013-01-24 09:14:00,55.0,48.3,30.28,NNE,18,0.0,0.0,78,0.11,,,0.66,WUHU216WMR968SP,2013-01-24 17:14:00,
2013-01-24 09:19:00,55.2,48.5,30.28,NNE,28,0.0,0.0,78,0.11,,,0.70,WUHU216WMR968SP,2013-01-24 17:19:00,
2013-01-24 09:24:00,55.4,48.4,30.25,NNE,23,0.0,0.0,77,0.11,,,0.70,WUHU216WMR968SP,2013-01-24 17:24:00,
2013-01-24 09:29:00,55.6,48.6,30.25,NNE,18,0.0,0.0,77,0.08,,,0.70,WUHU216WMR968SP,2013-01-24 17:29:00,
2013-01-24 09:34:00,55.8,48.4,30.25,NNE,19,0.0,0.0,76,0.08,,,0.70,WUHU216WMR968SP,2013-01-24 17:34:00,
2013-01-24 09:39:00,55.9,48.5,30.28,NNE,14,0.0,0.0,76,0.04,,,0.70,WUHU216WMR968SP,2013-01-24 17:39:00,
2013-01-24 09:44:00,55.9,48.5,30.28,NNE,32,0.0,0.0,76,0.04,,,0.70,WUHU216WMR968SP,2013-01-24 17:44:00,
2013-01-24 09:49:00,56.3,48.9,30.28,NNE,25,0.0,0.0,76,0.04,,,0.70,WUHU216WMR968SP,2013-01-24 17:49:00,
2013-01-24 09:54:00,56.5,49.1,30.28,NNE,15,0.0,0.0,76,0.04,,,0.70,WUHU216WMR968SP,2013-01-24 17:54:00,
2013-01-24 09:59:00,56.7,49.0,30.28,NE,56,0.0,0.0,75,0.04,,,0.70,WUHU216WMR968SP,2013-01-24 17:59:00,
2013-01-24 10:04:00,56.8,49.1,30.28,NNE,33,0.0,0.0,75,0.04,,,0.70,WUHU216WMR968SP,2013-01-24 18:04:00,
2013-01-24 10:09:00,57.2,49.1,30.28,NNE,13,0.0,0.0,74,0.04,,,0.70,WUHU216WMR968SP,2013-01-24 18:09:00,
2013-01-24 10:14:00,57.6,49.5,30.28,East,79,0.0,0.0,74,0.00,,,0.70,WUHU216WMR968SP,2013-01-24 18:14:00,
2013-01-24 10:19:00,57.9,49.8,30.28,ENE,66,0.0,0.0,74,0.00,,,0.70,WUHU216WMR968SP,2013-01-24 18:19:00,
2013-01-24 10:24:00,58.1,49.6,30.31,East,93,0.0,0.0,73,0.00,,,0.70,WUHU216WMR968SP,2013-01-24 18:24:00,
2013-01-24 10:29:00,58.3,49.8,30.31,NE,34,0.0,0.0,73,0.00,,,0.70,WUHU216WMR968SP,2013-01-24 18:29:00,
2013-01-24 10:34:00,58.5,50.0,30.31,NE,56,0.0,0.0,73,0.00,,,0.70,WUHU216WMR968SP,2013-01-24 18:34:00,
2013-01-24 10:39:00,58.6,49.7,30.28,NNE,21,0.0,0.0,72,0.00,,,0.70,WUHU216WMR968SP,2013-01-24 18:39:00,
2013-01-24 10:44:00,58.8,49.5,30.28,North,353,3.1,4.0,71,0.00,,,0.70,WUHU216WMR968SP,2013-01-24 18:44:00,
2013-01-24 10:49:00,59.2,49.6,30.28,NNE,14,3.1,5.8,70,0.00,,,0.70,WUHU216WMR968SP,2013-01-24 18:49:00,
2013-01-24 10:54:00,59.7,49.7,30.28,NNE,14,3.1,5.8,69,0.00,,,0.70,WUHU216WMR968SP,2013-01-24 18:54:00,
2013-01-24 10:59:00,59.7,49.7,30.28,North,357,4.5,8.1,69,0.00,,,0.70,WUHU216WMR968SP,2013-01-24 18:59:00,
2013-01-24 11:04:00,59.7,49.3,30.28,NNE,27,4.9,8.7,68,0.00,,,0.70,WUHU216WMR968SP,2013-01-24 19:04:00,
2013-01-24 11:09:00,59.9,49.1,30.28,NNE,17,4.9,9.6,67,0.00,,,0.70,WUHU216WMR968SP,2013-01-24 19:09:00,
2013-01-24 11:14:00,59.9,49.1,30.28,NNE,12,4.5,9.6,67,0.00,,,0.70,WUHU216WMR968SP,2013-01-24 19:14:00,
2013-01-24 11:19:00,59.9,49.1,30.28,NNE,19,4.9,8.3,67,0.00,,,0.70,WUHU216WMR968SP,2013-01-24 19:19:00,
2013-01-24 11:24:00,59.9,48.7,30.28,NNE,20,4.9,8.3,66,0.00,,,0.70,WUHU216WMR968SP,2013-01-24 19:24:00,
2013-01-24 11:29:00,60.1,48.8,30.28,NNE,22,4.9,8.3,66,0.00,,,0.70,WUHU216WMR968SP,2013-01-24 19:29:00,
2013-01-24 11:34:00,60.1,48.8,30.28,NNE,22,4.5,8.7,66,0.00,,,0.70,WUHU216WMR968SP,2013-01-24 19:34:00,
2013-01-24 11:39:00,60.1,48.8,30.28,NNE,21,3.1,8.7,66,0.00,,,0.70,WUHU216WMR968SP,2013-01-24 19:39:00,
2013-01-24 11:44:00,60.1,48.8,30.28,NNE,18,4.5,8.1,66,0.00,,,0.70,WUHU216WMR968SP,2013-01-24 19:44:00,
2013-01-24 11:49:00,60.3,49.0,30.28,NNE,29,4.0,6.3,66,0.00,,,0.70,WUHU216WMR968SP,2013-01-24 19:49:00,
2013-01-24 11:54:00,60.4,49.1,30.25,NNE,30,4.5,7.6,66,0.00,,,0.70,WUHU216WMR968SP,2013-01-24 19:54:00,
2013-01-24 11:59:00,60.6,48.9,30.25,NNE,21,4.9,7.6,65,0.00,,,0.70,WUHU216WMR968SP,2013-01-24 19:59:00,
2013-01-24 12:04:00,61.2,49.5,30.25,ENE,77,4.5,6.3,65,0.00,,,0.70,WUHU216WMR968SP,2013-01-24 20:04:00,
2013-01-24 12:09:00,61.7,50.0,30.25,North,10,4.0,6.3,65,0.00,,,0.70,WUHU216WMR968SP,2013-01-24 20:09:00,
2013-01-24 12:14:00,62.4,50.2,30.25,NNE,31,4.0,6.3,64,0.00,,,0.70,WUHU216WMR968SP,2013-01-24 20:14:00,
2013-01-24 12:19:00,63.0,50.8,30.25,NNE,17,2.7,6.3,64,0.00,,,0.70,WUHU216WMR968SP,2013-01-24 20:19:00,
2013-01-24 12:24:00,63.1,50.5,30.25,NNE,33,4.0,5.8,63,0.00,,,0.70,WUHU216WMR968SP,2013-01-24 20:24:00,
2013-01-24 12:29:00,63.1,50.0,30.25,NNE,17,4.0,6.3,62,0.00,,,0.70,WUHU216WMR968SP,2013-01-24 20:29:00,
2013-01-24 12:34:00,63.0,49.5,30.25,NNE,22,3.6,6.3,61,0.00,,,0.70,WUHU216WMR968SP,2013-01-24 20:34:00,
2013-01-24 12:39:00,63.0,49.9,30.25,NE,41,2.7,5.4,62,0.00,,,0.70,WUHU216WMR968SP,2013-01-24 20:39:00,
2013-01-24 12:44:00,63.1,50.5,30.25,East,98,3.1,5.4,63,0.00,,,0.70,WUHU216WMR968SP,2013-01-24 20:44:00,
2013-01-24 12:49:00,63.1,50.5,30.25,NNE,19,3.1,5.8,63,0.00,,,0.70,WUHU216WMR968SP,2013-01-24 20:49:00,
2013-01-24 12:54:00,63.1,50.0,30.22,North,7,5.4,6.3,62,0.00,,,0.70,WUHU216WMR968SP,2013-01-24 20:54:00,
2013-01-24 12:59:00,63.1,50.5,30.22,North,8,4.0,6.3,63,0.00,,,0.70,WUHU216WMR968SP,2013-01-24 20:59:00,
2013-01-24 13:05:00,63.1,50.5,30.22,NNE,22,3.1,6.3,63,0.00,,,0.70,WUHU216WMR968SP,2013-01-24 21:05:00,
2013-01-24 13:10:00,63.1,50.5,30.22,North,357,0.0,6.7,63,0.00,,,0.70,WUHU216WMR968SP,2013-01-24 21:10:00,
2013-01-24 13:15:00,63.1,50.5,30.22,ESE,119,2.7,4.9,63,0.00,,,0.70,WUHU216WMR968SP,2013-01-24 21:15:00,
2013-01-24 13:20:00,63.3,50.6,30.22,East,84,2.2,5.4,63,0.00,,,0.70,WUHU216WMR968SP,2013-01-24 21:20:00,
2013-01-24 13:25:00,63.3,50.6,30.22,SE,124,2.7,5.4,63,0.00,,,0.70,WUHU216WMR968SP,2013-01-24 21:25:00,
2013-01-24 13:30:00,63.5,50.8,30.22,North,357,0.0,4.0,63,0.00,,,0.70,WUHU216WMR968SP,2013-01-24 21:30:00,
2013-01-24 13:35:00,63.5,50.0,30.22,NNE,32,0.0,4.0,61,0.00,,,0.70,WUHU216WMR968SP,2013-01-24 21:35:00,
2013-01-24 13:40:00,63.5,50.4,30.22,ESE,102,0.0,4.5,62,0.00,,,0.70,WUHU216WMR968SP,2013-01-24 21:40:00,
2013-01-24 13:45:00,63.7,51.0,30.22,East,79,2.7,4.5,63,0.00,,,0.70,WUHU216WMR968SP,2013-01-24 21:45:00,
2013-01-24 13:50:00,63.7,50.6,30.22,East,101,0.0,3.6,62,0.00,,,0.70,WUHU216WMR968SP,2013-01-24 21:50:00,
2013-01-24 13:55:00,63.9,50.3,30.22,East,101,0.0,3.6,61,0.00,,,0.70,WUHU216WMR968SP,2013-01-24 21:55:00,
2013-01-24 14:00:00,64.0,50.4,30.22,NNE,24,0.0,3.6,61,0.00,,,0.70,WUHU216WMR968SP,2013-01-24 22:00:00,
2013-01-24 14:05:00,64.0,50.9,30.22,ESE,115,0.0,3.6,62,0.00,,,0.70,WUHU216WMR968SP,2013-01-24 22:05:00,
2013-01-24 14:10:00,63.9,50.3,30.22,ENE,78,0.0,3.1,61,0.00,,,0.70,WUHU216WMR968SP,2013-01-24 22:10:00,
2013-01-24 14:15:00,63.9,50.3,30.22,ENE,78,0.0,3.1,61,0.00,,,0.70,WUHU216WMR968SP,2013-01-24 22:15:00,
2013-01-24 14:20:00,63.9,50.3,30.22,ESE,108,0.0,4.0,61,0.00,,,0.70,WUHU216WMR968SP,2013-01-24 22:20:00,
2013-01-24 14:25:00,63.9,50.8,30.22,ESE,108,0.0,4.0,62,0.00,,,0.70,WUHU216WMR968SP,2013-01-24 22:25:00,
2013-01-24 14:30:00,64.0,50.9,30.22,ESE,110,0.0,3.6,62,0.00,,,0.70,WUHU216WMR968SP,2013-01-24 22:30:00,
2013-01-24 14:35:00,64.0,50.9,30.19,East,86,3.1,4.0,62,0.00,,,0.70,WUHU216WMR968SP,2013-01-24 22:35:00,
2013-01-24 14:40:00,64.0,50.4,30.19,East,86,0.0,4.0,61,0.00,,,0.70,WUHU216WMR968SP,2013-01-24 22:40:00,
2013-01-24 14:45:00,63.9,50.3,30.19,East,90,0.0,3.6,61,0.00,,,0.70,WUHU216WMR968SP,2013-01-24 22:45:00,
2013-01-24 14:50:00,63.9,50.3,30.19,East,91,0.0,3.6,61,0.00,,,0.70,WUHU216WMR968SP,2013-01-24 22:50:00,
2013-01-24 14:55:00,63.9,49.9,30.19,East,90,0.0,0.0,60,0.00,,,0.70,WUHU216WMR968SP,2013-01-24 22:55:00,
2013-01-24 15:00:00,64.0,50.4,30.19,East,91,0.0,0.0,61,0.00,,,0.70,WUHU216WMR968SP,2013-01-24 23:00:00,
2013-01-24 15:05:00,64.0,50.9,30.19,East,90,0.0,0.0,62,0.00,,,0.70,WUHU216WMR968SP,2013-01-24 23:05:00,
2013-01-24 15:10:00,64.2,50.6,30.19,East,91,0.0,0.0,61,0.00,,,0.70,WUHU216WMR968SP,2013-01-24 23:10:00,
2013-01-24 15:15:00,64.2,50.6,30.19,East,83,2.2,3.1,61,0.00,,,0.70,WUHU216WMR968SP,2013-01-24 23:15:00,
2013-01-24 15:20:00,64.4,50.8,30.19,East,83,0.0,3.1,61,0.00,,,0.70,WUHU216WMR968SP,2013-01-24 23:20:00,
2013-01-24 15:25:00,64.4,50.8,30.19,East,82,2.2,3.1,61,0.00,,,0.70,WUHU216WMR968SP,2013-01-24 23:25:00,
2013-01-24 15:30:00,64.2,50.6,30.19,East,83,0.0,3.1,61,0.00,,,0.70,WUHU216WMR968SP,2013-01-24 23:30:00,
2013-01-24 15:35:00,64.2,50.6,30.19,East,83,0.0,3.1,61,0.00,,,0.70,WUHU216WMR968SP,2013-01-24 23:35:00,
2013-01-24 15:40:00,64.2,50.6,30.19,East,97,0.0,2.7,61,0.00,,,0.70,WUHU216WMR968SP,2013-01-24 23:40:00,
2013-01-24 15:45:00,64.0,50.4,30.19,East,97,0.0,2.7,61,0.00,,,0.70,WUHU216WMR968SP,2013-01-24 23:45:00,
2013-01-24 15:50:00,64.0,50.4,30.19,ENE,69,0.0,0.0,61,0.00,,,0.70,WUHU216WMR968SP,2013-01-24 23:50:00,
2013-01-24 15:55:00,63.9,49.9,30.19,ENE,57,0.0,2.7,60,0.00,,,0.70,WUHU216WMR968SP,2013-01-24 23:55:00,
2013-01-24 16:00:00,63.9,49.9,30.19,ENE,57,0.0,2.7,60,0.00,,,0.70,WUHU216WMR968SP,2013-01-25 00:00:00,
2013-01-24 16:05:00,63.9,49.9,30.19,NE,56,0.0,2.7,60,0.00,,,0.70,WUHU216WMR968SP,2013-01-25 00:05:00,
2013-01-24 16:10:00,63.9,49.9,30.19,ENE,57,0.0,0.0,60,0.00,,,0.70,WUHU216WMR968SP,2013-01-25 00:10:00,
2013-01-24 16:15:00,63.9,49.9,30.19,NE,56,0.0,0.0,60,0.00,,,0.70,WUHU216WMR968SP,2013-01-25 00:15:00,
2013-01-24 16:20:00,63.9,49.9,30.19,NE,56,0.0,0.0,60,0.00,,,0.70,WUHU216WMR968SP,2013-01-25 00:20:00,
2013-01-24 16:25:00,64.0,50.0,30.19,ENE,57,0.0,0.0,60,0.00,,,0.70,WUHU216WMR968SP,2013-01-25 00:25:00,
2013-01-24 16:30:00,64.2,50.2,30.19,NNW,336,0.0,0.0,60,0.00,,,0.70,WUHU216WMR968SP,2013-01-25 00:30:00,
2013-01-24 16:35:00,64.2,50.2,30.19,North,3,0.0,3.1,60,0.00,,,0.70,WUHU216WMR968SP,2013-01-25 00:35:00,
2013-01-24 16:40:00,64.2,50.6,30.19,North,357,0.0,3.1,61,0.00,,,0.70,WUHU216WMR968SP,2013-01-25 00:40:00,
2013-01-24 16:45:00,63.9,50.8,30.19,North,357,0.0,0.0,62,0.00,,,0.70,WUHU216WMR968SP,2013-01-25 00:45:00,
2013-01-24 16:50:00,63.5,50.4,30.19,North,357,0.0,0.0,62,0.00,,,0.70,WUHU216WMR968SP,2013-01-25 00:50:00,
2013-01-24 16:55:00,63.1,50.5,30.19,North,357,0.0,0.0,63,0.00,,,0.70,WUHU216WMR968SP,2013-01-25 00:55:00,
2013-01-24 17:00:00,63.0,50.4,30.19,North,357,0.0,0.0,63,0.00,,,0.70,WUHU216WMR968SP,2013-01-25 01:00:00,
2013-01-24 17:05:00,62.8,50.2,30.19,North,357,0.0,0.0,63,0.00,,,0.70,WUHU216WMR968SP,2013-01-25 01:05:00,
2013-01-24 17:10:00,62.6,50.0,30.19,North,357,0.0,0.0,63,0.00,,,0.70,WUHU216WMR968SP,2013-01-25 01:10:00,
2013-01-24 17:15:00,62.6,50.4,30.19,North,357,0.0,0.0,64,0.00,,,0.70,WUHU216WMR968SP,2013-01-25 01:15:00,
2013-01-24 17:20:00,62.2,50.0,30.19,North,357,0.0,0.0,64,0.00,,,0.70,WUHU216WMR968SP,2013-01-25 01:20:00,
2013-01-24 17:25:00,62.2,50.0,30.19,North,357,0.0,0.0,64,0.00,,,0.70,WUHU216WMR968SP,2013-01-25 01:25:00,
2013-01-24 17:30:00,62.1,50.3,30.19,North,357,0.0,0.0,65,0.00,,,0.70,WUHU216WMR968SP,2013-01-25 01:30:00,
2013-01-24 17:35:00,61.7,50.0,30.19,North,357,0.0,0.0,65,0.00,,,0.70,WUHU216WMR968SP,2013-01-25 01:35:00,
2013-01-24 17:40:00,61.5,49.8,30.19,North,357,0.0,0.0,65,0.00,,,0.70,WUHU216WMR968SP,2013-01-25 01:40:00,
2013-01-24 17:45:00,61.3,49.6,30.19,NNE,15,0.0,2.7,65,0.00,,,0.70,WUHU216WMR968SP,2013-01-25 01:45:00,
2013-01-24 17:50:00,61.3,49.6,30.19,NNE,15,0.0,3.6,65,0.00,,,0.70,WUHU216WMR968SP,2013-01-25 01:50:00,
2013-01-24 17:55:00,61.3,49.6,30.19,NNE,15,0.0,3.6,65,0.00,,,0.70,WUHU216WMR968SP,2013-01-25 01:55:00,
2013-01-24 18:00:00,61.2,49.9,30.19,NNE,15,0.0,2.7,66,0.00,,,0.70,WUHU216WMR968SP,2013-01-25 02:00:00,
2013-01-24 18:05:00,61.3,50.0,30.19,NNE,15,0.0,0.0,66,0.00,,,0.70,WUHU216WMR968SP,2013-01-25 02:05:00,
2013-01-24 18:10:00,61.3,50.0,30.19,NNE,15,0.0,0.0,66,0.00,,,0.70,WUHU216WMR968SP,2013-01-25 02:10:00,
2013-01-24 18:15:00,61.3,50.0,30.19,North,1,0.0,0.0,66,0.00,,,0.70,WUHU216WMR968SP,2013-01-25 02:15:00,
2013-01-24 18:20:00,61.3,50.0,30.19,North,357,0.0,0.0,66,0.00,,,0.70,WUHU216WMR968SP,2013-01-25 02:20:00,
2013-01-24 18:25:00,61.3,50.0,30.19,North,357,0.0,0.0,66,0.00,,,0.70,WUHU216WMR968SP,2013-01-25 02:25:00,
2013-01-24 18:30:00,61.3,50.0,30.19,North,357,0.0,0.0,66,0.00,,,0.70,WUHU216WMR968SP,2013-01-25 02:30:00,
2013-01-24 18:35:00,61.3,50.0,30.19,North,357,0.0,0.0,66,0.00,,,0.70,WUHU216WMR968SP,2013-01-25 02:35:00,
2013-01-24 18:40:00,61.2,49.9,30.19,North,357,0.0,0.0,66,0.00,,,0.70,WUHU216WMR968SP,2013-01-25 02:40:00,
2013-01-24 18:45:00,61.0,49.3,30.19,North,0,0.0,0.0,65,0.00,,,0.70,WUHU216WMR968SP,2013-01-25 02:45:00,
2013-01-24 18:50:00,61.0,49.3,30.19,NNE,14,0.0,3.1,65,0.00,,,0.70,WUHU216WMR968SP,2013-01-25 02:50:00,
2013-01-24 18:55:00,60.8,49.5,30.19,North,357,0.0,4.0,66,0.00,,,0.70,WUHU216WMR968SP,2013-01-25 02:55:00,
2013-01-24 19:00:00,60.6,49.3,30.19,North,353,0.0,4.0,66,0.00,,,0.70,WUHU216WMR968SP,2013-01-25 03:00:00,
2013-01-24 19:05:00,60.6,49.3,30.19,North,353,0.0,3.1,66,0.00,,,0.70,WUHU216WMR968SP,2013-01-25 03:05:00,
2013-01-24 19:10:00,60.6,49.3,30.19,NNW,343,0.0,3.1,66,0.00,,,0.70,WUHU216WMR968SP,2013-01-25 03:10:00,
2013-01-24 19:15:00,60.6,49.3,30.19,NNW,348,0.0,2.7,66,0.00,,,0.70,WUHU216WMR968SP,2013-01-25 03:15:00,
2013-01-24 19:20:00,60.6,49.3,30.19,North,349,2.2,3.6,66,0.00,,,0.70,WUHU216WMR968SP,2013-01-25 03:20:00,
2013-01-24 19:25:00,60.6,49.3,30.19,North,353,0.0,3.6,66,0.00,,,0.70,WUHU216WMR968SP,2013-01-25 03:25:00,
2013-01-24 19:30:00,60.8,49.5,30.19,North,353,2.7,3.6,66,0.00,,,0.70,WUHU216WMR968SP,2013-01-25 03:30:00,
2013-01-24 19:35:00,61.0,49.7,30.19,North,353,0.0,3.6,66,0.00,,,0.70,WUHU216WMR968SP,2013-01-25 03:35:00,
2013-01-24 19:40:00,61.2,49.9,30.19,NNW,342,2.7,3.6,66,0.00,,,0.70,WUHU216WMR968SP,2013-01-25 03:40:00,
2013-01-24 19:45:00,61.2,49.9,30.19,North,353,0.0,3.6,66,0.00,,,0.70,WUHU216WMR968SP,2013-01-25 03:45:00,
2013-01-24 19:50:00,61.0,49.7,30.19,North,357,2.7,4.0,66,0.00,,,0.70,WUHU216WMR968SP,2013-01-25 03:50:00,
2013-01-24 19:55:00,61.0,49.7,30.19,NNW,333,2.2,4.0,66,0.00,,,0.70,WUHU216WMR968SP,2013-01-25 03:55:00,
2013-01-24 20:00:00,61.0,49.7,30.19,North,353,0.0,4.0,66,0.00,,,0.70,WUHU216WMR968SP,2013-01-25 04:00:00,
2013-01-24 20:05:00,61.0,49.7,30.19,North,0,0.0,3.6,66,0.00,,,0.70,WUHU216WMR968SP,2013-01-25 04:05:00,
2013-01-24 20:10:00,60.8,49.5,30.19,North,0,0.0,3.6,66,0.00,,,0.70,WUHU216WMR968SP,2013-01-25 04:10:00,
2013-01-24 20:15:00,60.8,49.1,30.19,North,0,0.0,0.0,65,0.00,,,0.70,WUHU216WMR968SP,2013-01-25 04:15:00,
2013-01-24 20:21:00,60.8,49.5,30.19,North,353,2.7,4.0,66,0.00,,,0.70,WUHU216WMR968SP,2013-01-25 04:21:00,
2013-01-24 20:26:00,60.8,49.5,30.19,North,350,0.0,4.0,66,0.00,,,0.70,WUHU216WMR968SP,2013-01-25 04:26:00,
2013-01-24 20:31:00,60.8,49.5,30.19,North,350,0.0,4.0,66,0.00,,,0.70,WUHU216WMR968SP,2013-01-25 04:31:00,
2013-01-24 20:36:00,60.8,49.5,30.19,North,0,0.0,3.1,66,0.00,,,0.70,WUHU216WMR968SP,2013-01-25 04:36:00,
2013-01-24 20:41:00,60.6,49.7,30.19,NNE,21,2.7,4.0,67,0.00,,,0.70,WUHU216WMR968SP,2013-01-25 04:41:00,
2013-01-24 20:46:00,60.6,49.7,30.19,North,6,3.1,4.9,67,0.00,,,0.70,WUHU216WMR968SP,2013-01-25 04:46:00,
2013-01-24 20:51:00,60.6,49.7,30.19,North,3,2.7,4.9,67,0.00,,,0.70,WUHU216WMR968SP,2013-01-25 04:51:00,
2013-01-24 20:56:00,60.8,49.5,30.19,North,357,2.2,4.9,66,0.00,,,0.70,WUHU216WMR968SP,2013-01-25 04:56:00,
2013-01-24 21:02:00,60.8,49.9,30.19,North,0,2.7,4.0,67,0.00,,,0.70,WUHU216WMR968SP,2013-01-25 05:02:00,
2013-01-24 21:07:00,60.8,49.5,30.19,NNE,13,0.0,3.6,66,0.00,,,0.70,WUHU216WMR968SP,2013-01-25 05:07:00,
2013-01-24 21:12:00,60.8,49.5,30.19,North,353,0.0,3.6,66,0.00,,,0.70,WUHU216WMR968SP,2013-01-25 05:12:00,
2013-01-24 21:17:00,61.0,49.7,30.19,North,353,0.0,0.0,66,0.00,,,0.70,WUHU216WMR968SP,2013-01-25 05:17:00,
2013-01-24 21:22:00,61.0,49.7,30.19,North,9,0.0,0.0,66,0.00,,,0.70,WUHU216WMR968SP,2013-01-25 05:22:00,
2013-01-24 21:27:00,61.2,49.9,30.19,NNE,19,0.0,0.0,66,0.00,,,0.70,WUHU216WMR968SP,2013-01-25 05:27:00,
2013-01-24 21:32:00,61.3,50.0,30.19,North,357,0.0,0.0,66,0.00,,,0.70,WUHU216WMR968SP,2013-01-25 05:32:00,
2013-01-24 21:37:00,61.3,50.0,30.19,North,357,0.0,0.0,66,0.00,,,0.70,WUHU216WMR968SP,2013-01-25 05:37:00,
2013-01-24 21:42:00,61.3,49.6,30.19,North,357,0.0,0.0,65,0.00,,,0.70,WUHU216WMR968SP,2013-01-25 05:42:00,
2013-01-24 21:47:00,61.3,49.6,30.19,North,357,0.0,0.0,65,0.00,,,0.70,WUHU216WMR968SP,2013-01-25 05:47:00,
2013-01-24 21:52:00,61.2,49.9,30.19,North,357,0.0,0.0,66,0.00,,,0.70,WUHU216WMR968SP,2013-01-25 05:52:00,
2013-01-24 21:57:00,61.2,49.9,30.19,North,357,0.0,0.0,66,0.00,,,0.70,WUHU216WMR968SP,2013-01-25 05:57:00,
2013-01-24 22:02:00,61.0,49.7,30.19,North,357,0.0,0.0,66,0.00,,,0.70,WUHU216WMR968SP,2013-01-25 06:02:00,
2013-01-24 22:07:00,61.0,49.7,30.19,North,357,0.0,0.0,66,0.00,,,0.70,WUHU216WMR968SP,2013-01-25 06:07:00,
2013-01-24 22:12:00,60.8,49.5,30.19,North,357,0.0,0.0,66,0.00,,,0.70,WUHU216WMR968SP,2013-01-25 06:12:00,
2013-01-24 22:17:00,60.8,49.5,30.19,North,357,0.0,0.0,66,0.00,,,0.70,WUHU216WMR968SP,2013-01-25 06:17:00,
2013-01-24 22:22:00,60.6,49.7,30.19,North,357,0.0,0.0,67,0.00,,,0.70,WUHU216WMR968SP,2013-01-25 06:22:00,
2013-01-24 22:27:00,60.6,49.7,30.19,North,357,0.0,0.0,67,0.00,,,0.70,WUHU216WMR968SP,2013-01-25 06:27:00,
2013-01-24 22:32:00,60.4,49.5,30.19,North,357,0.0,0.0,67,0.00,,,0.70,WUHU216WMR968SP,2013-01-25 06:32:00,
2013-01-24 22:37:00,60.4,49.5,30.19,North,357,0.0,0.0,67,0.00,,,0.70,WUHU216WMR968SP,2013-01-25 06:37:00,
2013-01-24 22:42:00,60.3,49.8,30.19,North,357,0.0,0.0,68,0.00,,,0.70,WUHU216WMR968SP,2013-01-25 06:42:00,
2013-01-24 22:47:00,60.1,49.6,30.19,North,357,0.0,0.0,68,0.00,,,0.70,WUHU216WMR968SP,2013-01-25 06:47:00,
2013-01-24 22:52:00,60.1,49.6,30.22,North,357,0.0,0.0,68,0.00,,,0.70,WUHU216WMR968SP,2013-01-25 06:52:00,
2013-01-24 22:57:00,60.1,50.0,30.22,North,357,0.0,0.0,69,0.00,,,0.70,WUHU216WMR968SP,2013-01-25 06:57:00,
2013-01-24 23:02:00,59.9,50.6,30.22,North,357,0.0,0.0,71,0.00,,,0.70,WUHU216WMR968SP,2013-01-25 07:02:00,
2013-01-24 23:07:00,59.9,50.6,30.22,North,357,0.0,0.0,71,0.00,,,0.70,WUHU216WMR968SP,2013-01-25 07:07:00,
2013-01-24 23:12:00,59.9,50.2,30.22,North,357,0.0,0.0,70,0.00,,,0.70,WUHU216WMR968SP,2013-01-25 07:12:00,
2013-01-24 23:17:00,60.1,50.4,30.22,NNW,332,0.0,0.0,70,0.00,,,0.70,WUHU216WMR968SP,2013-01-25 07:17:00,
2013-01-24 23:22:00,60.1,50.4,30.22,NNW,332,0.0,0.0,70,0.00,,,0.70,WUHU216WMR968SP,2013-01-25 07:22:00,
2013-01-24 23:27:00,60.1,50.4,30.22,NNE,16,0.0,0.0,70,0.00,,,0.70,WUHU216WMR968SP,2013-01-25 07:27:00,
2013-01-24 23:32:00,60.1,50.0,30.22,NNE,16,0.0,0.0,69,0.00,,,0.70,WUHU216WMR968SP,2013-01-25 07:32:00,
2013-01-24 23:37:00,59.7,49.7,30.22,North,8,0.0,0.0,69,0.00,,,0.70,WUHU216WMR968SP,2013-01-25 07:37:00,
2013-01-24 23:42:00,59.7,49.7,30.22,North,353,0.0,0.0,69,0.00,,,0.70,WUHU216WMR968SP,2013-01-25 07:42:00,
2013-01-24 23:47:00,59.7,49.7,30.22,North,353,0.0,0.0,69,0.00,,,0.70,WUHU216WMR968SP,2013-01-25 07:47:00,
2013-01-24 23:52:00,59.7,50.0,30.22,NNE,19,0.0,0.0,70,0.04,,,0.74,WUHU216WMR968SP,2013-01-25 07:52:00,
2013-01-24 23:57:00,59.7,50.4,30.22,North,5,0.0,0.0,71,0.04,,,0.74,WUHU216WMR968SP,2013-01-25 07:57:00,